Regional Weather Roundup
Issued by NWS

Home | Current Version | Previous Version | Graphics & Text | Print | Product List | Glossary On
Versions: 1 2 3 4 5 6 7 8 9 10 11 12 13 14 15 16 17 18 19 20 21 22 23 24 25 26 27 28 29 30 31 32 33 34 35 36 37 38 39 40 41 42 43 44 45 46 47 48 49 50
000
ASUS45 KPSR 292210
RWRAZ

ARIZONA HOURLY REGIONAL WEATHER ROUNDUP
NATIONAL WEATHER SERVICE PHOENIX AZ
300 PM MST WED JUL 29 2015

NOTE: FAIR INDICATES FEW OR NO CLOUDS BELOW 12,000 FEET WITH NO
SIGNIFICANT WEATHER AND/OR OBSTRUCTIONS TO VISIBILITY.

AZZ001>003-036-292300-
NORTHWEST ARIZONA

CITY           SKY/WX    TMP DP  RH WIND       PRES   REMARKS
BULLHEAD CITY  MOSUNNY  104  57  21 S10       29.87F HX 103
KINGMAN        MOSUNNY   96  50  20 SW12G25   30.08F
$$

AZZ004>008-015-016-018-292300-
NORTH CENTRAL ARIZONA

CITY           SKY/WX    TMP DP  RH WIND       PRES   REMARKS
GRAND CANYON   MOSUNNY   87  25  10 N7G21     30.30F
WILLIAMS       CLOUDY    81  45  28 E17       30.39R
PRESCOTT       CLOUDY    86  43  22 S6        30.21F
FLAGSTAFF      CLOUDY    73  46  38 VRB7G18   30.35S
PAYSON         PTSUNNY   82  54  36 W6        30.22F
PAGE           MOSUNNY   96  24   7 N8        30.12F
$$

AZZ009>014-017-292300-
NORTHEAST ARIZONA

CITY           SKY/WX    TMP DP  RH WIND       PRES   REMARKS
WINSLOW        MOSUNNY   87  47  24 CALM      30.17F
SAINT JOHNS    TSTM      71  58  63 NE14      30.23R
SHOW LOW       LGT RAIN  63  57  82 S7        30.33R
$$

AZZ023-292300-
GREATER PHOENIX AREA

CITY           SKY/WX    TMP DP  RH WIND       PRES   REMARKS
PHOENIX        PTSUNNY   99  61  28 W15       29.91F
GLENDALE       PTSUNNY   97  63  32 S12G17    29.94F
DEER VALLEY    MOSUNNY   95  62  33 SW9G17    29.94F
SCOTTSDALE     MOSUNNY   96  62  32 W9        29.95F
MESA-FALCON    PTSUNNY   99  61  28 W12       29.94F
MESA-GATEWAY   MOSUNNY   97  63  32 W15       29.95F
CHANDLER       PTSUNNY   99  63  30 W12       29.92F HX 100
$$

AZZ027-028-292300-
SOUTHWEST MARICOPA COUNTY AND PINAL COUNTY

CITY           SKY/WX    TMP DP  RH WIND       PRES   REMARKS
CASA GRANDE    PTSUNNY   97  59  28 W5        29.94F
$$

AZZ503-504-507>509-292300-
SOUTHEAST ARIZONA

CITY           SKY/WX    TMP DP  RH WIND       PRES   REMARKS
TUCSON         MOSUNNY   90  61  37 W7        30.04F
RYAN FIELD     SUNNY     91  63  38 W3        30.02F
NOGALES        SUNNY     87  61  41 VRB7      30.11F
SIERRA VISTA   PTSUNNY   86  56  35 SW9       30.16F
DOUGLAS          N/A    N/A N/A N/A MISG      30.10F
SAFFORD        CLOUDY    88  59  37 S6        30.05R
$$

AZZ020-021-025-026-031-292300-
SOUTHWEST ARIZONA

CITY           SKY/WX    TMP DP  RH WIND       PRES   REMARKS
YUMA           PTSUNNY  100  66  32 VRB6      29.87F HX 104
$$

CAZ031-033-041-043-047-048-061-292300-
SOUTHERN CALIFORNIA

CITY           SKY/WX    TMP DP  RH WIND       PRES   REMARKS
DOWNTOWN L.A.  SUNNY     78  63  59 VRB6      29.93S
L.A. AIRPORT   MOSUNNY   73  64  73 SW15      29.95S
SAN DIEGO      MOSUNNY   77  63  61 NW7       29.95F
BURBANK        SUNNY     87  62  43 S10       29.92F
ONTARIO        MOSUNNY   95  63  34 W15G23    29.90F
RIVERSIDE      MOSUNNY   95  65  37 W13G22    29.90S
PALM SPRINGS   MOSUNNY  102  64  28 E9G16     29.90F HX 105
EL CENTRO NAS  PTSUNNY  101  66  31 E12       29.85F HX 105
IMPERIAL       MOSUNNY  100  68  35 SE13      29.84F HX 105
BLYTHE         PTSUNNY   99  63  30 S12G17    29.88F HX 101
NEEDLES        PTSUNNY  106  57  20 SW12G18   29.88F HX 105
$$

NVZ020-UTZ003-292300-
SOUTHERN NEVADA-UTAH

CITY           SKY/WX    TMP DP  RH WIND       PRES   REMARKS
LAS VEGAS      MOSUNNY  103  37  10 VRB3      29.94F
SALT LAKE CITY SUNNY     83  22  10 VRB3      30.24F
$$

NMZ009-TXZ055-292300-
NEW MEXICO-WEST TEXAS

CITY           SKY/WX    TMP DP  RH WIND       PRES   REMARKS
ALBUQUERQUE    LGT RAIN  71  63  75 E10       30.28F
EL PASO        MOSUNNY   91  56  30 VRB3G23   30.08F
$$


........................KEY........................
SKY/WX - SKY CONDITION/WEATHER
TMP    - TEMPERATURE IN FAHRENHEIT
DP     - DEW POINT IN FAHRENHEIT
RH     - RELATIVE HUMIDITY IN PERCENT
WIND   - DIRECTION AND SPEED IN MILES PER HOUR (MPH)
VRB    - VARIABLE WIND DIRECTION
PRES   - MEAN SEA LEVEL PRESSURE IN INCHES OF MERCURY
         F - FALLING PRESSURE   R - RISING PRESSURE
         S - STEADY PRESSURE
VSB    - VISIBILITY IN MILES
HX     - HEAT INDEX IN FAHRENHEIT
WCI    - WIND CHILL INDEX IN FAHRENHEIT
TC     - TEMPERATURE IN CELSIUS WHICH IS ALSO KNOWN AS
         TEMPERATURE IN CENTIGRADE
AFB    - AIR FORCE BASE
         LUKE AFB IS LUKE AIR FORCE BASE
         DAVIS-MONTHAN IS DAVIS-MONTHAN AIR FORCE BASE
NAS    - NAVAL AIR STATION
         EL CENTRO NAS IS EL CENTRO NAVAL AIR STATION
N/A    - NOT AVAILABLE




USA.gov is the U.S. government's official web portal to all federal, state and local government web resources and services.